Weather History for Altoona, PA

Change the Weather History Date:

Friday, May 10, 2013

  Actual Average Record
Temperature  
Mean Temperature 66 °F 56 °F  
Max Temperature 73 °F 68 °F 87 °F (1970)
Min Temperature 59 °F 45 °F 25 °F (1966)
Degree Days  
Heating Degree Days 0 9  
Month to date heating degree days 102  
Since 1 July heating degree days 6006  
Cooling Degree Days 1 0  
Month to date cooling degree days 0  
Year to date cooling degree days 6  
Growing Degree Days 16 (Base 50)    
Moisture  
Dew Point 57 °F    
Average Humidity 78    
Maximum Humidity 90    
Minimum Humidity 66    
Precipitation  
Precipitation 0.30 in 0.12 in 0.90 in (1959)
Month to date precipitation 1.15  
Year to date precipitation 11.62  
Sea Level Pressure  
Sea Level Pressure 29.96 in    
Wind  
Wind Speed 3 mph (SSW)    
Max Wind Speed 18 mph    
Max Gust Speed 26 mph    
Visibility 8 miles    
Events Rain , Thunderstorm    
T = Trace of Precipitation, MM = Missing Value Source: NWS Daily Summary

Daily Weather History Graph

Daily Weather History Graph

Search for Another Location

Airport:

Trip Planner

Search our weather history database for the weather conditions in past years. The results will help you decide how hot, cold, wet, or windy it might be!

Date:

Astronomy

May. 10, 2013 Rise Set
Actual Time 6:02 AM EDT 8:17 PM EDT
Civil Twilight 5:31 AM EDT 8:48 PM EDT
Nautical Twilight 4:54 AM EDT 9:25 PM EDT
Astronomical Twilight 4:13 AM EDT 10:07 PM EDT
Moon 6:24 AM EDT (5/10) 9:05 PM EDT (5/10)
Length of Visible Light 15h 16m
Length of Day
14h 15m
New Moon, 0% of the Moon is Illuminated
May 10
New Moon
May 18
First Quarter
May 25
Full
May 31
Last Quarter
Jun 8
New

Hourly Weather History & Observations

Time (EDT) Temp. Dew Point Humidity Pressure Visibility Wind Dir Wind Speed Gust Speed Precip Events Conditions
12:53 AM - - N/A% 30.03 in 10.0 mi Calm Calm - N/A   Clear
1:53 AM - - N/A% 30.03 in 10.0 mi Calm Calm - N/A   Clear
2:53 AM - - N/A% 30.02 in 10.0 mi Calm Calm - N/A   Clear
4:53 AM - - N/A% 30.02 in 10.0 mi Calm Calm - N/A   Clear
5:53 AM - - N/A% 30.02 in 10.0 mi Calm Calm - N/A   Overcast
6:53 AM - - N/A% 30.02 in 7.0 mi Calm Calm - N/A   Overcast
8:53 AM 62.1 °F 55.0 °F 78% 30.01 in 9.0 mi Calm Calm - N/A   Overcast
9:53 AM 63.0 °F 55.0 °F 75% 30.01 in 10.0 mi SSW 3.5 mph - N/A   Overcast
10:53 AM 66.0 °F 55.9 °F 70% 30.01 in 10.0 mi SW 5.8 mph - N/A   Overcast
11:32 AM 64.4 °F 57.2 °F 77% 30.02 in 2.5 mi Calm Calm - 0.04 in Rain Rain
11:39 AM 64.4 °F 57.2 °F 77% 30.02 in 7.0 mi Calm Calm - 0.04 in Rain Light Rain
11:53 AM 64.9 °F 57.9 °F 78% 30.02 in 10.0 mi NW 3.5 mph - 0.04 in   Overcast
12:32 PM 62.6 °F 57.2 °F 82% 30.03 in 2.5 mi NW 3.5 mph - 0.03 in Rain Rain
1:53 PM 64.9 °F 59.0 °F 81% 29.98 in 10.0 mi SSW 5.8 mph - 0.00 in   Overcast
2:53 PM 69.1 °F 60.1 °F 73% 29.96 in 10.0 mi Variable 3.5 mph - N/A   Clear
3:53 PM 71.1 °F 59.0 °F 66% 29.92 in 10.0 mi SSE 8.1 mph - N/A   Clear
4:53 PM 72.0 °F 60.1 °F 66% 29.90 in 10.0 mi South 4.6 mph - N/A   Clear
5:53 PM 71.1 °F 60.1 °F 68% 29.88 in 10.0 mi SSE 6.9 mph - N/A   Scattered Clouds
6:27 PM 66.2 °F 57.2 °F 73% 29.89 in 6.0 mi SSW 18.4 mph 23.0 mph 0.01 in Rain , Thunderstorm Thunderstorms and Rain
6:49 PM 62.6 °F 57.2 °F 82% 29.92 in 1.8 mi SW 15.0 mph 26.5 mph 0.13 in Rain , Thunderstorm Heavy Thunderstorms and Rain
6:53 PM 62.1 °F 57.0 °F 84% 29.93 in 2.0 mi SW 12.7 mph 24.2 mph 0.14 in Rain , Thunderstorm Thunderstorms and Rain
7:01 PM 62.6 °F 57.2 °F 82% 29.94 in 7.0 mi SSW 10.4 mph - 0.00 in Rain , Thunderstorm Light Thunderstorms and Rain
7:12 PM 62.6 °F 57.2 °F 82% 29.93 in 10.0 mi SW 18.4 mph 26.5 mph 0.00 in   Mostly Cloudy
7:53 PM 62.1 °F 55.0 °F 78% 29.92 in 10.0 mi SW 6.9 mph - 0.00 in Rain Light Rain
8:53 PM 61.0 °F 55.0 °F 81% 29.89 in 10.0 mi South 5.8 mph - 0.03 in Rain Light Rain
9:53 PM 60.1 °F 55.9 °F 86% 29.91 in 7.0 mi South 8.1 mph - 0.03 in Rain Light Rain
10:53 PM 60.1 °F 55.9 °F 86% 29.88 in 10.0 mi South 8.1 mph - 0.03 in Rain Light Rain
11:53 PM 59.0 °F 55.9 °F 90% 29.86 in 7.0 mi SSW 4.6 mph - 0.03 in Rain Light Rain